Gastón Iansa fue el más rápido en la tanda de entrenamientos de la Clase 2 del Turismo Nacional, en el marco de la tercera fecha de la temporada, que significa el regreso de la actividad. El piloto de San Vicente marcó un tiempo de 1:37.131 para ser la referencia inicial con el Toyota Etios que atiende el JCB Motorsport.

En el Autódromo Roberto Mouras de La Plata, el segundo lugar quedó en manos de Nicolás Posco, a 11 centésimas; mientras que Tomás Bergallo finalizó en el tercer puesto, a 39 centésimas de la punta.

Por su parte, las diez primeras posiciones las completaron Thiago Martínez, Yamil Apud, Lucas Tedeschi, Christian Bodrato Mionetto, Gerónimo Núñez, Maximiliano Bestani y Luciano González.

    Entrenamiento TN Clase 2 – La Plata    

Pos. Piloto Marca Vtas. Tiempo Dif.
1 5 GASTON IANSA FIESTA KINETIC 6 1:37.131
2 3 NICOLAS POSCO FIESTA KINETIC 7 1:37.243 0.112
3 144 Tomas BERGALLO TOYOTA ETIOS 5 1:37.526 0.395
4 152 THIAGO MARTINEZ RENAULT CLIO 3 1:37.598 0.467
5 87 YAMIL APUD RENAULT CLIO 7 1:37.903 0.772
6 72 Lucas TEDESCHI TOYOTA ETIOS 6 1:38.258 1.127
7 62 CHRISTIAN BODRATO MIONETTO FIAT PALIO 7 1:38.312 1.181
8 6 GERONIMO NUÑEZ TOYOTA ETIOS 8 1:38.317 1.186
9 11 MAXIMILIANO BESTANI FIESTA KINETIC 5 1:38.410 1.279
10 41 LUCIANO GONZALEZ FIESTA KINETIC 4 1:38.426 1.295
11 29 CHRISTIAN ABDALA TOYOTA ETIOS 7 1:38.645 1.514
12 100 MAURO SALVI TOYOTA ETIOS 5 1:38.669 1.538
13 127 JOSE BAILONE RENAULT CLIO 6 1:39.004 1.873
14 4 SEBASTIAN PEREZ CHEVROLET ONIX 5 1:39.013 1.882
15 12 MIGUEL CIAURRO VW TREND 7 1:39.036 1.905
16 120 MATEO NUÑEZ NISSAN MARCH 6 1:39.225 2.094
17 26 DAMIAN KIRSTEIN PEUGEOT 208 5 1:39.406 2.275
18 116 ALEJANDRO TORRISI NISSAN MARCH 6 1:39.580 2.449
19 30 VALDERREY ALEJANDRO FIAT ARGO 4 1:39.727 2.596
20 14 FACUNDO LEANEZ TOYOTA ETIOS 6 1:39.738 2.607
21 18 GABRIEL SCORDIA FIAT ARGO 5 1:39.815 2.684
22 10 ALEJO BORGIANI VW TREND 5 1:39.868 2.737
23 75 JOSÉ LUIS ARRATE RENAULT CLIO 5 1:39.916 2.785
24 19 FERNANDO GOMEZ FREDES FIESTA KINETIC 6 1:40.009 2.878
25 95 EMANUEL ABDALA TOYOTA ETIOS 6 1:40.051 2.920
26 22 DIEGO LEANEZ TOYOTA ETIOS 6 1:40.119 2.988
27 31 IGNACIO PROCACITTO VW TREND 5 1:40.220 3.089
28 44 SANDRO ABDALA RENAULT CLIO 6 1:40.284 3.153
29 17 RENZO TESTA FIAT ARGO 6 1:40.401 3.270
30 159 AGUSTÍN BONOMO DS3 3 1:40.514 3.383
31 84 LUCAS YEROBI RENAULT CLIO 6 1:40.776 3.645
32 64 MIGUEL ARGAÑARAZ RENAULT CLIO 2 1:41.381 4.250
33 123 FABRICIO BENITEZ TOYOTA ETIOS 4 1:41.407 4.276
34 8 JOEL BORGOBELLO VW TREND 2 2:02.182 25.051

S.B

Compartir